Погода в Анастасьевке

Россия / Хабаровский край     48°34′29″N   135°33′58″E
темп.,
°C
ветер,
м/с
пор.,
м/с
влажн.,
%
обл.,
%
осадки,
мм/ч
давл.,
гПа
погр.,
м
8 мая, сб
сб801:00+5ссв91774100 4.7 993535
04:00+4ссв71377100 4.9 992510
07:00+4св71380100 0.0 993449
10:00+7св6771100 0.0 995562
13:00+10ссв6761100 0.0 996782
16:00+12св775821 0.0 997916
19:00+9св8116483 0.0 998685
22:00+6св8147799 0.0 999426
9 мая, вс
вс901:00+4св81489100 0.0 999414
04:00+4св81491100 0.0 998437
07:00+4св81489100 0.1 999442
10:00+6св81081100 0.3 1000519
13:00+6св81281100 0.1 1000454
16:00+7св91278100 0.3 1001610
19:00+6ссв81579100 0.0 1002580
22:00+6ссв81580100 0.3 1004627
10 мая, пн
пн1001:00+5ссв91583100 0.0 1005604
04:00+4ссв81488100 0.0 1006692
07:00+3ссв81483100 0.0 1007710
10:00+6ссв8126674 0.0 1008928
13:00+10ссв8105567 0.0 10091304
16:00+11ссв8105394 0.0 10101328
19:00+9св6106182 0.0 1011868
22:00+6св51267100 0.0 1014601
11 мая, вт
вт1101:00+5св51271100 0.0 1015563
04:00+4ссв41278100 0.0 1016531
07:00+4ссв4107990 0.0 1017514
10:00+8ссв5661100 0.0 1018802
13:00+11с3450100 0.0 10171236
16:00+13сз334927 0.0 10171506
19:00+12сз33605 0.0 1017687
22:00+8з11744 0.0 101710
12 мая, ср
ср1201:00+7ююз22815 0.0 101710
04:00+5юв228418 0.0 101719
07:00+7юв367794 0.0 1016147
10:00+14ю4555100 0.0 1015799
13:00+17ю5742100 0.0 10131804
16:00+17ююз5846100 0.0 10101779
19:00+12юз61280100 0.2 1011701
22:00+10ююз51190100 3.3 1011785